GW5930 Weather Reports


Display with metric or nautical units.
time (UTC)temp
F
wind
direction
speed
MPH
gust
MPH
rain 1hr
in
rain 24hr
in
rain mn
in
humidity
%
barometer
mb
20260504202418 78 198 4.0 4.0 0.00 0.00 0.00 33 1014.6
20260504201914 77 266 7.0 10.0 0.00 0.00 0.00 33 1014.6
20260504201412 80 261 3.0 4.0 0.00 0.00 0.00 34 1014.7
20260504200909 79 142 0.0 3.0 0.00 0.00 0.00 35 1014.8
20260504200406 77 266 2.0 5.0 0.00 0.00 0.00 36 1014.8
20260504195903 77 320 3.0 3.0 0.00 0.00 0.00 35 1014.8
20260504195358 77 267 4.0 5.0 0.00 0.00 0.00 34 1014.9
20260504194855 78 237 9.0 10.0 0.00 0.00 0.00 34 1015.0
20260504194351 77 174 3.0 7.0 0.00 0.00 0.00 34 1015.1
20260504193847 77 183 4.0 5.0 0.00 0.00 0.00 37 1015.1
20260504193344 77 178 3.0 9.0 0.00 0.00 0.00 34 1015.1
20260504192843 77 219 4.0 10.0 0.00 0.00 0.00 37 1015.3
20260504192340 77 162 3.0 9.0 0.00 0.00 0.00 36 1015.4
20260504191838 76 57 2.0 6.0 0.00 0.00 0.00 35 1015.3
20260504191336 77 56 1.0 7.0 0.00 0.00 0.00 38 1015.4
20260504190831 76 313 1.0 8.0 0.00 0.00 0.00 34 1015.7
20260504190327 76 43 1.0 5.0 0.00 0.00 0.00 35 1015.7
20260504185824 75 276 4.0 5.0 0.00 0.00 0.00 35 1015.8
20260504185321 75 241 6.0 6.0 0.00 0.00 0.00 34 1015.8
20260504184817 76 278 3.0 6.0 0.00 0.00 0.00 33 1015.6
20260504184313 76 269 3.0 6.0 0.00 0.00 0.00 33 1015.9
20260504183809 75 243 3.0 4.0 0.00 0.00 0.00 33 1016.0
20260504183307 75 25 1.0 3.0 0.00 0.00 0.00 33 1016.3
20260504182804 76 204 4.0 8.0 0.00 0.00 0.00 31 1016.1
20260504182301 76 154 4.0 6.0 0.00 0.00 0.00 32 1016.1
20260504181759 75 134 5.0 9.0 0.00 0.00 0.00 37 1016.0
20260504181256 75 109 4.0 7.0 0.00 0.00 0.00 33 1016.3
20260504180755 75 189 2.0 4.0 0.00 0.00 0.00 35 1016.1
20260504180253 75 99 5.0 6.0 0.00 0.00 0.00 35 1016.1
20260504175750 75 170 4.0 8.0 0.00 0.00 0.00 33 1016.4
20260504175247 75 25 0.0 5.0 0.00 0.00 0.00 33 1016.5
20260504174745 74 277 2.0 4.0 0.00 0.00 0.00 35 1016.5
20260504174243 74 229 5.0 5.0 0.00 0.00 0.00 35 1016.5
20260504173739 73 71 1.0 3.0 0.00 0.00 0.00 35 1016.6
20260504173236 73 111 9.0 11.0 0.00 0.00 0.00 35 1016.8
20260504172733 74 74 9.0 10.0 0.00 0.00 0.00 37 1016.8
20260504172229 74 153 5.0 10.0 0.00 0.00 0.00 36 1016.9
20260504171726 74 126 3.0 8.0 0.00 0.00 0.00 37 1017.0
20260504171223 73 242 4.0 4.0 0.00 0.00 0.00 38 1016.7
20260504170720 73 61 2.0 5.0 0.00 0.00 0.00 37 1017.0
20260504170217 73 82 4.0 9.0 0.00 0.00 0.00 39 1017.0
20260504160135 72 210 2.0 3.0 0.00 0.00 0.00 37 1017.8
20260504151103 70 300 6.0 6.0 0.00 0.00 0.00 42 1017.7
20260504150600 70 70 5.0 9.0 0.00 0.00 0.00 41 1017.7
20260504141026 70 197 5.0 5.0 0.00 0.00 0.00 40 1017.8
20260504140522 69 103 2.0 5.0 0.00 0.00 0.00 45 1017.8
20260504130447 64 132 2.0 2.0 0.00 0.00 0.00 70 1017.9
20260504110334 42 151 2.0 2.0 0.00 0.00 0.00 99 1017.5
20260504100251 44 130 2.0 2.0 0.00 0.00 0.00 99 1017.3
20260504081645 45 151 0.0 1.0 0.00 0.00 0.00 99 1017.8
20260504081141 45 138 2.0 2.0 0.00 0.00 0.00 99 1017.8
20260504080637 45 164 0.0 1.0 0.00 0.00 0.00 99 1017.8
20260504080134 45 135 1.0 2.0 0.00 0.00 0.00 99 1017.7
20260504050450 48 151 0.0 2.0 0.00 0.00 0.00 98 1018.9
20260504045947 48 141 0.0 1.0 0.00 0.00 0.00 97 1018.8
20260504045443 48 154 0.0 1.0 0.00 0.00 0.00 97 1018.7
20260504044939 48 191 0.0 2.0 0.00 0.00 0.00 97 1018.6
20260504044437 48 138 2.0 3.0 0.00 0.00 0.00 97 1018.6
20260504043934 48 234 1.0 2.0 0.00 0.00 0.00 97 1018.5
20260504043431 49 159 1.0 2.0 0.00 0.00 0.00 96 1018.4
20260504042929 49 121 2.0 2.0 0.00 0.00 0.00 96 1018.4
20260504042425 49 224 0.0 1.0 0.00 0.00 0.00 94 1018.5
20260504041922 49 158 2.0 2.0 0.00 0.00 0.00 94 1018.5
20260504041418 49 153 1.0 2.0 0.00 0.00 0.00 94 1018.5
20260504040914 49 135 0.0 2.0 0.00 0.00 0.00 94 1018.4
20260504040412 49 212 0.0 2.0 0.00 0.00 0.00 93 1018.3
20260504035908 50 169 2.0 2.0 0.00 0.00 0.00 93 1018.3
20260504035405 50 171 0.0 1.0 0.00 0.00 0.00 93 1018.3
20260504034902 50 146 1.0 2.0 0.00 0.00 0.00 92 1018.4
20260504034359 50 145 2.0 3.0 0.00 0.00 0.00 91 1018.3
20260504033856 50 143 2.0 3.0 0.00 0.00 0.00 91 1018.5
20260504033354 50 250 2.0 2.0 0.00 0.00 0.00 92 1018.4
20260504032850 50 148 1.0 2.0 0.00 0.00 0.00 90 1018.4
20260504032347 51 162 2.0 2.0 0.00 0.00 0.00 91 1018.4
20260504031844 51 195 2.0 2.0 0.00 0.00 0.00 91 1018.2
20260504031342 51 153 1.0 2.0 0.00 0.00 0.00 91 1018.4
20260504030838 51 106 3.0 3.0 0.00 0.00 0.00 90 1018.4
20260504030335 51 130 2.0 2.0 0.00 0.00 0.00 88 1018.2
20260504025831 51 129 0.0 0.0 0.00 0.00 0.00 88 1018.3
20260504025328 52 248 2.0 3.0 0.00 0.00 0.00 87 1018.5
20260504024825 52 150 2.0 2.0 0.00 0.00 0.00 86 1018.4
20260504024321 52 149 2.0 2.0 0.00 0.00 0.00 85 1018.5
20260504023818 52 158 2.0 2.0 0.00 0.00 0.00 83 1018.2
20260504023315 52 135 2.0 2.0 0.00 0.00 0.00 82 1018.2
20260504022811 53 119 0.0 1.0 0.00 0.00 0.00 82 1018.3
20260504022308 53 77 1.0 1.0 0.00 0.00 0.00 81 1018.2
20260504021804 53 66 0.0 1.0 0.00 0.00 0.00 82 1018.3
20260504021302 53 159 1.0 1.0 0.00 0.00 0.00 81 1018.3
20260504020758 54 186 1.0 2.0 0.00 0.00 0.00 77 1018.1
20260504020255 54 161 2.0 2.0 0.00 0.00 0.00 76 1018.2
20260504015751 54 137 1.0 1.0 0.00 0.00 0.00 79 1018.1
20260504015248 54 133 1.0 1.0 0.00 0.00 0.00 79 1018.0
20260504014743 55 117 0.0 2.0 0.00 0.00 0.00 78 1017.9
20260504014240 55 130 0.0 0.0 0.00 0.00 0.00 77 1017.9
20260504013738 55 180 0.0 1.0 0.00 0.00 0.00 66 1017.9
20260504013235 56 156 1.0 2.0 0.00 0.00 0.00 71 1017.7
20260504012732 56 146 2.0 2.0 0.00 0.00 0.00 74 1017.6
20260504012230 57 224 0.0 0.0 0.00 0.00 0.00 68 1017.4
20260504011726 57 50 0.0 0.0 0.00 0.00 0.00 64 1017.4
20260504011223 57 129 0.0 1.0 0.00 0.00 0.00 71 1017.6
20260504010719 58 156 1.0 2.0 0.00 0.00 0.00 61 1017.2
20260504010215 59 171 1.0 2.0 0.00 0.00 0.00 72 1017.2
20260504005711 59 175 1.0 2.0 0.00 0.00 0.00 59 1017.1
20260504005209 59 198 2.0 2.0 0.00 0.00 0.00 55 1017.1
20260504004707 60 183 2.0 2.0 0.00 0.00 0.00 55 1017.1
20260504004203 60 192 2.0 2.0 0.00 0.00 0.00 53 1017.1
20260504003700 61 179 1.0 2.0 0.00 0.00 0.00 52 1016.9
20260504003157 62 177 2.0 2.0 0.00 0.00 0.00 52 1016.8
20260504002653 63 181 1.0 2.0 0.00 0.00 0.00 51 1016.9
20260504002151 65 191 2.0 2.0 0.00 0.00 0.00 48 1016.8
20260504001649 66 138 2.0 2.0 0.00 0.00 0.00 43 1017.0
20260504001144 66 113 1.0 1.0 0.00 0.00 0.00 43 1016.8
20260504000642 67 32 0.0 1.0 0.00 0.00 0.00 41 1016.9
20260504000139 68 20 2.0 3.0 0.00 0.00 0.00 40 1016.8
20260503235637 68 3 2.0 2.0 0.00 0.00 0.00 39 1016.8
20260503235133 69 302 3.0 4.0 0.00 0.00 0.00 37 1016.7
20260503234632 70 348 3.0 4.0 0.00 0.00 0.00 37 1016.8
20260503234130 70 2 1.0 3.0 0.00 0.00 0.00 37 1016.9
20260503233626 70 332 6.0 7.0 0.00 0.00 0.00 36 1016.8
20260503233122 71 325 5.0 6.0 0.00 0.00 0.00 36 1016.7
20260503232619 71 20 2.0 4.0 0.00 0.00 0.00 35 1016.7
20260503232116 71 60 2.0 4.0 0.00 0.00 0.00 36 1016.7
20260503231614 71 4 4.0 4.0 0.00 0.00 0.00 36 1016.8
20260503231110 72 13 6.0 9.0 0.00 0.00 0.00 34 1016.9
20260503230608 71 297 2.0 5.0 0.00 0.00 0.00 36 1016.7
20260503230104 72 309 6.0 6.0 0.00 0.00 0.00 34 1016.7
20260503225602 72 322 5.0 6.0 0.00 0.00 0.00 35 1016.8
20260503225056 72 331 4.0 7.0 0.00 0.00 0.00 34 1016.9
20260503224554 72 323 3.0 5.0 0.00 0.00 0.00 36 1016.9
20260503224052 72 354 4.0 8.0 0.00 0.00 0.00 36 1016.9
20260503223550 72 336 3.0 5.0 0.00 0.00 0.00 36 1016.8
20260503223045 72 0 5.0 8.0 0.00 0.00 0.00 34 1016.8
20260503222543 72 329 6.0 9.0 0.00 0.00 0.00 37 1016.8
20260503222041 72 246 4.0 10.0 0.00 0.00 0.00 36 1016.8
20260503221539 73 343 6.0 7.0 0.00 0.00 0.00 35 1016.9
20260503221036 73 287 4.0 5.0 0.00 0.00 0.00 34 1016.8
20260503220532 72 297 1.0 6.0 0.00 0.00 0.00 34 1016.8
20260503220029 72 303 6.0 8.0 0.00 0.00 0.00 34 1016.9
20260503215526 72 356 4.0 6.0 0.00 0.00 0.00 34 1016.8
20260503215023 72 317 3.0 7.0 0.00 0.00 0.00 32 1016.9
20260503214522 73 299 9.0 11.0 0.00 0.00 0.00 32 1016.9
20260503214018 72 343 2.0 7.0 0.00 0.00 0.00 34 1017.0
20260503213516 72 346 5.0 11.0 0.00 0.00 0.00 34 1016.8
20260503213013 72 335 5.0 7.0 0.00 0.00 0.00 34 1017.0
20260503212510 72 338 5.0 11.0 0.00 0.00 0.00 34 1017.1
20260503212008 73 3 5.0 11.0 0.00 0.00 0.00 35 1017.0
20260503211504 72 348 3.0 14.0 0.00 0.00 0.00 35 1016.8
20260503211000 73 138 1.0 7.0 0.00 0.00 0.00 36 1016.9
20260503210457 73 236 7.0 9.0 0.00 0.00 0.00 36 1017.2
20260503205957 72 318 4.0 9.0 0.00 0.00 0.00 36 1017.1
20260503205454 72 308 7.0 11.0 0.00 0.00 0.00 36 1017.2
20260503204950 71 79 4.0 9.0 0.00 0.00 0.00 35 1017.2
20260503204448 72 354 4.0 8.0 0.00 0.00 0.00 36 1017.3
20260503203944 72 358 3.0 9.0 0.00 0.00 0.00 39 1017.3
20260503203442 72 2 5.0 7.0 0.00 0.00 0.00 39 1017.5
20260503202938 71 48 5.0 7.0 0.00 0.00 0.00 38 1017.5